Regional Weather Roundup
Issued by NWS Upton, NY

Home | Current Version | Previous Version | Text Only | Print | Product List | Glossary On
Versions: 1 2 3 4 5 6 7 8 9 10 11 12 13 14 15 16 17 18 19 20 21 22 23 24 25 26 27 28 29 30 31 32 33 34 35 36 37 38 39 40 41 42 43 44 45 46 47 48 49 50
000
ASUS41 KOKX 200505
RWROKX

REGIONAL WEATHER ROUNDUP
NATIONAL WEATHER SERVICE NEW YORK NY
100 AM EDT WED AUG 20 2014

NOTE: "FAIR" INDICATES FEW OR NO CLOUDS BELOW 12,000 FEET WITH NO
SIGNIFICANT WEATHER AND/OR OBSTRUCTIONS TO VISIBILITY.

NYZ071-072-176-178-NJZ106-104-200600-
NEW YORK CITY METRO AREA


CITY           SKY/WX    TMP DP  RH WIND       PRES   REMARKS
CENTRAL PARK   PTCLDY    71  63  75 CALM      29.97S
LAGUARDIA APRT PTCLDY    72  65  78 S6        29.94S
KENNEDY INTL   MOCLDY    71  65  81 CALM      29.95S
NEWARK/LIBERTY MOCLDY    70  65  84 S3        29.94F
BRNX BOT. GARD   N/A     68  64  88 E1        29.96R
TETERBORO      PTCLDY    71  63  75 CALM      29.94R
$$

NYZ177-179-078>081-200600-
LONG ISLAND NEW YORK

CITY           SKY/WX    TMP DP  RH WIND       PRES   REMARKS
FARMINGDALE    MOCLDY    66  63  90 CALM      29.95S
ISLIP          MOCLDY    66  62  87 CALM      29.94R
SHIRLEY        MOCLDY    62  60  93 CALM      29.96R
WESTHAMPTON    MOCLDY    56  52  86 CALM      29.97R
MONTAUK POINT    N/A     66  63  90 CALM      29.96F
$$

NYZ052-065-067-200600-
HUDSON VALLEY

CITY           SKY/WX    TMP DP  RH WIND       PRES   REMARKS
WHITE PLAINS   PTCLDY    65  63  93 CALM      29.95S
NEWBURGH       CLEAR     64  63  94 CALM      29.97R
MONTGOMERY     PTCLDY    60  57  89 CALM      29.95S
POUGHKEEPSIE   CLEAR     62  59  90 CALM      29.94R
ALBANY         PTCLDY    61  56  83 CALM      29.95R
$$

NJZ001-105-106-008-010-013-015-019>022-104-200600-
NEW JERSEY

CITY           SKY/WX    TMP DP  RH WIND       PRES   REMARKS
NEWARK/LIBERTY MOCLDY    70  65  84 S3        29.94F
TETERBORO      PTCLDY    71  63  75 CALM      29.94R
CALDWELL       MOCLDY    67  61  81 CALM      29.95S
MORRISTOWN     MOCLDY    64  61  88 CALM      29.95S
SOMERVILLE     MOCLDY    67  61  81 CALM      29.93S
LINDEN         FAIR      75  68  79 CALM      29.96S
SUSSEX         CLOUDY    66  61  84 CALM      29.95S
ANDOVER          N/A     66  64  93 CALM      29.95F
TRENTON        PTCLDY    69  62  78 SE3       29.93F
MILLVILLE      PTCLDY    65  63  93 CALM      29.93S
ATLANTIC CITY  PTCLDY    66  64  93 CALM      29.93S
WRIGHTSTOWN    MOCLDY    65  63  91 VRB1      29.92S
TOMS RIVER     MOCLDY    64  61  88 CALM      29.95R
BELMAR         PTCLDY    66  61  82 CALM      29.94S
$$

PAZ047>061-062-071-200600-
EASTERN PENNSYLVANIA

CITY           SKY/WX    TMP DP  RH WIND       PRES   REMARKS
PHILADELPHIA   CLOUDY    73  63  70 S3        29.94R
ALLENTOWN      CLEAR     73  63  70 S5        29.94R
SCRANTON       CLOUDY    71  61  70 CALM      29.94R
$$

CTZ002-004>006-009-010-012-RIZ004-006-007-MAZ004-011-015-200600-
SOUTHERN NEW ENGLAND
 IN CT

CITY           SKY/WX    TMP DP  RH WIND       PRES   REMARKS
BRADLEY INTL   PTCLDY    63  57  81 CALM      29.96R
HARTFORD       PTCLDY    62  59  90 CALM      29.95S
DANBURY        PTCLDY    61  59  93 SW3       29.97S
WTRBRY/OXFORD  PTCLDY    61  55  82 CALM      29.98F
BRIDGEPORT     MOCLDY    68  65  90 CALM      29.95S
MERIDEN        PTCLDY    59  57  93 CALM      29.96S
NEW HAVEN      PTCLDY    65  62  90 CALM      29.96R
CHESTER        FAIR      63  61  94 CALM      29.97S
GROTON         PTCLDY    59  58  96 CALM      29.95S
WILLIMANTIC    MOCLDY    57  55  93 N3        29.98R

 IN RI

CITY           SKY/WX    TMP DP  RH WIND       PRES   REMARKS
PROVIDENCE     PTCLDY    61  57  87 CALM      29.97S
BLOCK ISLAND   MOCLDY    64  61  88 CALM      29.96F
WESTERLY       PTCLDY    59  56  89 N3        29.97S

 IN MA

CITY           SKY/WX    TMP DP  RH WIND       PRES   REMARKS
BOSTON         MOCLDY    64  55  72 SW5       29.97R
WORCESTER      MOCLDY    61  53  75 W8        29.99R
WESTFIELD      PTCLDY    59  57  93 CALM      29.96S
PROVINCETOWN   PTCLDY    61  57  88 MISG      29.97S
NANTUCKET      PTCLDY    58  55  90 SE3       29.96F
$$

ANZ330-335-338-340-345-350-353-355-200600-
COASTAL MARINE OBSERVATIONS


STATION/POSITION TIME  SKY/WX   TEMP    WIND        PRES    VSBY  WAVE
                                AIR SEA DIR/SP/G                  HT/PER
                 (UTC)          (F)     (DEG/KT/KT) (MB)    (MI)  (FT/S)
NY HARB ENTRANCE NOT AVBL
4S FIRE IS       NOT AVBL
23SW MTP         0500            68 69              1013.9          1/ 7
HUDSON CANYON    0500            72 74   70/ 10/ 10 1013.4          2/ 8
EXECUTION ROCKS  0500            71 73  190/  4/  6   N/A
WESTERN LI SOUND 0500            70     220/  4/  6   N/A           0
CENTRAL LI SOUND 0400            70 72  170/  4/  6   N/A           0
EASTERN LI SOUND 0400            68 68   CALM  /  2   N/A
ROBBINS REEF     0500            72     140/  7/  9   N/A
$$


>>>>>>>>>>>>>>>>>>>>>>>>>>>> KEY <<<<<<<<<<<<<<<<<<<<<<<<<<<
>                                                          <
>     SKY/WX - SKY CONDITION/PRESENT WEATHER               <
>     TMP    - TEMPERATURE IN FAHRENHEIT                   <
>     DP     - DEWPOINT IN FAHRENHEIT                      <
>     RH     - RELATIVE HUMIDITY IN PERCENT                <
>     WIND   - DIRECTION AND SPEED IN MPH                  <
>     PRES   - MEAN SEA LEVEL PRESSURE IN INCHES OF HG     <
>     WCI    - WIND CHILL INDEX                            <
>     VSB    - VISIBILITY IN MILES                         <
>     HX     - HEAT INDEX                                  <
>     TC     - TEMPERATURE IN CELSIUS                      <
>     VRB    - VARIABLE WIND DIRECTION                     <
>                                                          <
>>>>>>>>>>>>>>>>>>>>>>>>>>>> KEY <<<<<<<<<<<<<<<<<<<<<<<<<<<





USA.gov is the U.S. government's official web portal to all federal, state and local government web resources and services.